Location: Fiennes
(50.8274°N, 1.8253°E)
Time: 23:36:56
(UTC+00:00)

Cosmos 2219 Rocket - Pass Details

Date: 15 May 2026
Orbit: 825 x 846 km, 71.0° (Epoch: 11 June)

Event Time Altitude Azimuth Distance (km) Brightness Sun altitude
Rises 23:41:38 0° 315° (NW) 3,407 6.1 -20.1°
Reaches altitude 10° 23:45:43 10° 287° (WNW) 2,470 4.8 -20.1°
Maximum altitude 23:47:48 12° 265° (W) 2,318 4.4 -20.1°
Enters shadow 23:49:51 10° 243° (WSW) 2,460 4.4 -20.1°
